Weather History for Morris, IL

Change the Weather History Date:

Friday, June 28, 2013

  Actual Average (KLOT) Record (KLOT)
Temperature  
Mean Temperature 74 °F 73 °F  
Max Temperature 85 °F 83 °F 99 °F (2012)
Min Temperature 63 °F 63 °F 44 °F (1992)
Degree Days  
Heating Degree Days 0 0  
Month to date heating degree days 31  
Since 1 June heating degree days 31  
Since 1 July heating degree days 6217  
Cooling Degree Days 8 8  
Month to date cooling degree days 161  
Year to date cooling degree days 219  
Since 1 June cooling degree days 161  
Growing Degree Days 24 (Base 50)    
Moisture  
Dew Point 61 °F    
Average Humidity 70    
Maximum Humidity 96    
Minimum Humidity 37    
Precipitation  
Precipitation 0.20 in 0.13 in 1.04 in (1993)
Month to date precipitation 4.11  
Year to date precipitation 18.81  
Sea Level Pressure  
Sea Level Pressure 29.68 in    
Wind  
Wind Speed 10 mph (NW)    
Max Wind Speed 20 mph    
Max Gust Speed 31 mph    
Visibility 10 miles    
Events Rain , Thunderstorm    
T = Trace of Precipitation, MM = Missing Value Source: NWS Daily Summary

Daily Weather History Graph

Daily Weather History Graph

Search for Another Location

Airport:

Trip Planner

Search our weather history database for the weather conditions in past years. The results will help you decide how hot, cold, wet, or windy it might be!

Date:

Astronomy

Jun. 28, 2013 Rise Set
Actual Time 5:22 AM CDT 8:31 PM CDT
Civil Twilight 4:48 AM CDT 9:05 PM CDT
Nautical Twilight 4:05 AM CDT 9:48 PM CDT
Astronomical Twilight 3:13 AM CDT 10:40 PM CDT
Moon 11:55 PM CDT (6/28) 11:34 AM CDT (6/28)
Length of Visible Light 16h 16m
Length of Day
15h 08m
Waning Gibbous, 66% of the Moon is Illuminated
Jun 28
Waning Gibbous
Jun 29
Last Quarter
Jul 8
New
Jul 15
First Quarter
Jul 22
Full

Hourly Weather History & Observations

Time (CDT) Temp. Heat Index Dew Point Humidity Pressure Visibility Wind Dir Wind Speed Gust Speed Precip Events Conditions
12:15 AM 69.8 °F - 62.6 °F 78% 29.73 in 10.0 mi WNW 9.2 mph - N/A   Clear
12:35 AM 69.1 °F - 62.8 °F 80% 29.74 in 10.0 mi WNW 6.9 mph - N/A   Clear
12:55 AM 68.9 °F - 62.4 °F 80% 29.74 in 10.0 mi WNW 8.1 mph - N/A   Clear
1:35 AM 68.4 °F - 61.7 °F 79% 29.73 in 10.0 mi WNW 10.4 mph - N/A   Clear
1:55 AM 68.4 °F - 61.2 °F 78% 29.72 in 10.0 mi WNW 11.5 mph - N/A   Clear
2:15 AM 68.7 °F - 60.8 °F 76% 29.71 in 10.0 mi WNW 10.4 mph - N/A   Clear
2:35 AM 68.0 °F - 60.8 °F 78% 29.71 in 10.0 mi WNW 9.2 mph - N/A   Clear
2:55 AM 67.5 °F - 60.8 °F 79% 29.71 in 10.0 mi WNW 10.4 mph - N/A   Clear
3:15 AM 68.0 °F - 60.1 °F 76% 29.71 in 10.0 mi NW 9.2 mph - N/A   Clear
3:35 AM 68.0 °F - 59.9 °F 75% 29.71 in 10.0 mi NW 10.4 mph - N/A   Clear
3:55 AM 68.5 °F - 59.4 °F 72% 29.70 in 10.0 mi NW 6.9 mph - N/A   Clear
4:15 AM 68.4 °F - 59.4 °F 73% 29.70 in 10.0 mi NW 9.2 mph - N/A   Clear
4:35 AM 66.2 °F - 59.5 °F 79% 29.70 in 10.0 mi WNW 9.2 mph - N/A   Clear
4:55 AM 64.2 °F - 60.3 °F 87% 29.70 in 10.0 mi WNW 6.9 mph - N/A   Clear
5:15 AM 63.9 °F - 61.2 °F 91% 29.71 in 10.0 mi WNW 8.1 mph - N/A   Clear
5:35 AM 64.4 °F - 60.8 °F 88% 29.70 in 10.0 mi WNW 8.1 mph - N/A   Clear
5:55 AM 64.9 °F - 61.0 °F 87% 29.71 in 10.0 mi WNW 9.2 mph - N/A   Clear
6:15 AM 66.0 °F - 60.8 °F 83% 29.71 in 10.0 mi WNW 9.2 mph - N/A   Clear
6:35 AM 67.5 °F - 60.8 °F 79% 29.71 in 10.0 mi WNW 9.2 mph - N/A   Clear
6:55 AM 69.1 °F - 61.0 °F 75% 29.71 in 10.0 mi West 9.2 mph - N/A   Clear
7:55 AM 71.6 °F - 61.3 °F 70% 29.72 in 10.0 mi WNW 9.2 mph - N/A   Mostly Cloudy
8:15 AM 71.8 °F - 61.7 °F 70% 29.71 in 10.0 mi WNW 15.0 mph 18.4 mph N/A   Scattered Clouds
8:35 AM 74.3 °F - 61.2 °F 63% 29.71 in 10.0 mi WNW 18.4 mph 23.0 mph N/A   Scattered Clouds
8:55 AM 76.5 °F - 60.8 °F 58% 29.71 in 10.0 mi NW 11.5 mph 23.0 mph N/A   Clear
9:15 AM 77.7 °F - 60.6 °F 55% 29.71 in 10.0 mi NW 8.1 mph - N/A   Clear
9:35 AM 77.9 °F - 60.4 °F 55% 29.71 in 10.0 mi NW 9.2 mph - N/A   Clear
9:55 AM 79.2 °F - 60.8 °F 53% 29.71 in 10.0 mi NW 8.1 mph - N/A   Clear
10:15 AM 79.7 °F - 60.4 °F 52% 29.70 in 10.0 mi NW 12.7 mph 17.3 mph N/A   Clear
10:35 AM 80.4 °F 81.3 °F 61.0 °F 51% 29.70 in 10.0 mi WNW 15.0 mph - N/A   Clear
10:55 AM 80.8 °F 81.4 °F 59.7 °F 49% 29.70 in 10.0 mi NW 15.0 mph 21.9 mph N/A   Clear
11:15 AM 81.7 °F 82.3 °F 61.0 °F 49% 29.70 in 10.0 mi WNW 15.0 mph 19.6 mph N/A   Clear
11:35 AM 81.9 °F 82.3 °F 60.6 °F 48% 29.70 in 10.0 mi WNW 17.3 mph - N/A   Clear
11:55 AM 82.2 °F 82.6 °F 60.1 °F 47% 29.69 in 10.0 mi NW 12.7 mph 24.2 mph N/A   Clear
12:15 PM 82.9 °F 82.6 °F 57.7 °F 42% 29.69 in 10.0 mi WNW 18.4 mph 28.8 mph N/A   Clear
12:35 PM 83.8 °F 83.1 °F 57.4 °F 40% 29.68 in 10.0 mi NW 17.3 mph 24.2 mph N/A   Scattered Clouds
12:55 PM 83.7 °F 83.0 °F 56.8 °F 40% 29.68 in 10.0 mi WNW 19.6 mph 31.1 mph N/A   Scattered Clouds
1:15 PM 83.3 °F 82.5 °F 55.6 °F 39% 29.68 in 10.0 mi NW 10.4 mph 19.6 mph N/A   Clear
1:35 PM 82.9 °F 82.6 °F 57.9 °F 42% 29.67 in 10.0 mi WNW 15.0 mph 20.7 mph N/A   Scattered Clouds
1:55 PM 83.3 °F 82.6 °F 56.3 °F 40% 29.66 in 10.0 mi NW 17.3 mph 24.2 mph N/A   Scattered Clouds
2:15 PM 84.2 °F 83.5 °F 57.4 °F 40% 29.65 in 10.0 mi WNW 15.0 mph 20.7 mph N/A   Scattered Clouds
2:35 PM 84.4 °F 83.2 °F 55.8 °F 37% 29.64 in 10.0 mi WNW 19.6 mph 27.6 mph N/A   Scattered Clouds
2:55 PM 84.4 °F 83.5 °F 57.2 °F 39% 29.64 in 10.0 mi WNW 19.6 mph 31.1 mph N/A   Scattered Clouds
3:15 PM 81.5 °F 81.5 °F 57.4 °F 44% 29.63 in 10.0 mi NW 12.7 mph 21.9 mph N/A   Scattered Clouds
3:35 PM 73.8 °F - 62.8 °F 68% 29.64 in 10.0 mi Calm Calm - N/A Rain Light Rain
3:55 PM 67.6 °F - 62.4 °F 83% 29.67 in 2.0 mi NNW 8.1 mph 24.2 mph N/A Rain Heavy Rain
4:15 PM 68.2 °F - 66.7 °F 95% 29.66 in 10.0 mi Calm Calm - 0.02 in Rain Light Rain
4:35 PM 69.4 °F - 67.5 °F 93% 29.67 in 10.0 mi North 4.6 mph - 0.02 in   Scattered Clouds
4:55 PM 68.4 °F - 64.9 °F 89% 29.64 in 10.0 mi WNW 4.6 mph - 0.16 in Rain Light Rain
5:15 PM 70.7 °F - 65.3 °F 83% 29.65 in 10.0 mi West 11.5 mph - 0.03 in Thunderstorm Thunderstorm
5:35 PM 69.8 °F - 63.5 °F 80% 29.64 in 10.0 mi NW 6.9 mph - 0.04 in Rain Light Rain
5:55 PM 71.2 °F - 64.2 °F 78% 29.64 in 10.0 mi NW 4.6 mph - 0.04 in   Clear
6:15 PM 72.9 °F - 64.8 °F 76% 29.63 in 10.0 mi WNW 11.5 mph - N/A   Clear
6:35 PM 73.6 °F - 64.6 °F 73% 29.63 in 10.0 mi WNW 13.8 mph 20.7 mph N/A   Clear
6:55 PM 74.5 °F - 65.3 °F 73% 29.63 in 10.0 mi WNW 17.3 mph 26.5 mph N/A   Scattered Clouds
7:15 PM 75.2 °F - 62.8 °F 65% 29.63 in 10.0 mi NW 6.9 mph 28.8 mph N/A   Scattered Clouds
7:35 PM 74.3 °F - 62.2 °F 66% 29.64 in 10.0 mi NNW 5.8 mph - N/A   Clear
7:55 PM 73.8 °F - 62.2 °F 67% 29.64 in 10.0 mi NNW 5.8 mph - N/A   Clear
8:15 PM 72.9 °F - 62.1 °F 69% 29.64 in 10.0 mi NNW 3.5 mph - N/A   Scattered Clouds
8:35 PM 71.6 °F - 62.6 °F 73% 29.64 in 10.0 mi Calm Calm - N/A   Scattered Clouds
8:55 PM 70.7 °F - 62.6 °F 75% 29.65 in 10.0 mi Calm Calm - N/A   Clear
9:15 PM 69.8 °F - 63.0 °F 79% 29.65 in 10.0 mi Calm Calm - N/A   Scattered Clouds
9:35 PM 70.2 °F - 63.0 °F 78% 29.65 in 10.0 mi NW 4.6 mph - N/A Rain Light Rain
9:55 PM 69.3 °F - 63.3 °F 81% 29.65 in 10.0 mi NW 9.2 mph - N/A   Scattered Clouds
10:15 PM 68.0 °F - 63.5 °F 85% 29.65 in 10.0 mi WNW 9.2 mph - N/A   Clear
10:35 PM 67.3 °F - 64.8 °F 92% 29.65 in 10.0 mi NW 5.8 mph - N/A   Clear
10:55 PM 67.6 °F - 63.5 °F 87% 29.64 in 10.0 mi NW 3.5 mph - N/A   Scattered Clouds
11:15 PM 68.0 °F - 63.5 °F 85% 29.64 in 10.0 mi NW 4.6 mph - N/A   Mostly Cloudy
11:35 PM 66.7 °F - 64.2 °F 92% 29.63 in 10.0 mi WNW 4.6 mph - N/A   Scattered Clouds
11:55 PM 65.7 °F - 64.4 °F 96% 29.63 in 10.0 mi WNW 4.6 mph - N/A   Clear